Terminal Aerodrome Forecast
Issued by NWS

Home | Current Version | Previous Version | Text Only | Print | Product List | Glossary On
Versions: 1 2 3 4 5 6 7 8 9 10 11 12 13 14 15 16 17 18 19 20 21 22 23 24 25 26 27 28 29 30 31 32 33 34 35 36 37 38 39 40 41 42 43 44 45 46 47 48 49 50
591
FTUS41 KCTP 062358
TAFJST
TAF
KJST 062358Z 0700/0724 36008KT P6SM VCSH SCT015 OVC025
     FM070300 35008KT P6SM OVC015
     FM070500 33005KT 4SM -DZ BR OVC006
     FM071600 23006KT P6SM BKN045=

USA.gov is the U.S. government's official web portal to all federal, state and local government web resources and services.